[[{"header":{"parameterUnit":"m.s-1","parameterCategory":1,"la1":30.2991,"la2":30.254,"lo1":-89.0895,"lo2":-89.0444,"dy":0.0017,"dx":0.0017,"nx":28,"ny":28,"refTime":"2024-02-07T03:00:00:Z","depth":0,"parameterNumber":2,"parameterNumberName":"U-component_of_WINDS"},"data":[0,0,0,0,0,0,0,0,0,0,0,0,0,0,0,0,0,0,0,0,0,0,0,0,0,0,0,0,0,0,0,0,0,0,0,0,0,0,0,0,0,0,0,0,0,0,0,0,0,0,0,0,0,0,0,0,0,0,-1.2869,-1.2869,0,-1.2823,-1.2822,-1.2822,-1.2798,-1.2798,-1.2798,-1.2798,-1.2754,-1.2753,-1.2752,0,0,0,0,0,0,0,0,0,0,0,0,0,-1.2941,-1.2939,-1.2869,-1.2869,-1.2868,-1.2823,-1.2822,-1.2822,-1.2798,-1.2798,-1.2798,-1.2798,-1.2754,-1.2753,-1.2751,0,0,0,0,0,0,0,0,0,0,0,0,0,-1.2904,-1.2939,-1.2869,-1.285,-1.2848,-1.2823,-1.2822,-1.2821,-1.2798,-1.2798,-1.2798,-1.2798,-1.2755,-1.2753,-1.2751,-1.2742,0,0,-1.2746,-1.2745,0,0,0,0,0,0,0,0,-1.2906,-1.2901,-1.2854,-1.2852,-1.2849,-1.2816,-1.2831,-1.2795,-1.2798,-1.2817,-1.2798,-1.2798,-1.2775,-1.2771,-1.2763,-1.274,-1.2738,-1.2746,-1.2745,-1.2744,-1.2744,0,0,0,0,0,0,0,-1.2908,-1.2903,-1.2851,-1.2853,-1.285,-1.2846,-1.284,-1.2824,-1.2797,-1.2815,-1.2814,-1.2808,-1.2774,-1.2765,-1.2762,-1.2738,-1.2746,-1.2744,-1.2743,-1.2743,-1.2705,-1.2705,0,0,0,0,0,0,-1.2913,-1.2905,-1.2852,-1.2849,-1.2878,-1.2844,-1.2838,-1.2827,-1.2797,-1.2792,-1.2808,-1.2807,-1.2768,-1.2764,-1.276,-1.2747,-1.2744,-1.2743,-1.2742,-1.2705,-1.2705,-1.2705,0,0,0,0,0,0,-1.2915,-1.2909,-1.2854,-1.2877,-1.2869,-1.2843,-1.283,-1.2826,-1.2817,-1.2792,-1.2787,-1.2804,-1.2767,-1.2763,-1.2746,-1.2745,-1.2742,-1.274,-1.2705,-1.2705,-1.2705,-1.2721,0,0,0,0,0,0,-1.2917,-1.291,-1.2905,-1.2877,-1.2868,-1.284,-1.283,-1.2825,-1.2814,-1.2812,-1.2786,-1.2782,-1.2767,-1.2749,-1.2745,-1.2743,-1.2739,-1.2705,-1.2705,-1.2705,-1.2721,-1.2722,-1.2723,0,0,0,0,0,-1.292,-1.2912,-1.2905,-1.2899,-1.2862,-1.284,-1.2836,-1.2817,-1.2814,-1.2809,-1.2793,-1.2783,-1.2746,-1.2748,-1.2743,-1.274,-1.2705,-1.2705,-1.2705,-1.272,-1.2722,-1.2723,0,0,0,0,0,0,-1.2942,-1.2908,-1.29,-1.2882,-1.2864,-1.2836,-1.283,-1.2819,-1.2803,-1.2802,-1.2781,-1.2776,-1.2761,-1.2749,-1.2752,-1.273,-1.2725,-1.2724,-1.2738,-1.2739,-1.274,-1.2743,-1.2738,0,0,0,0,0,-1.2945,-1.2929,-1.2901,-1.2888,-1.288,-1.2856,-1.2846,-1.2834,-1.2815,-1.2807,-1.279,-1.2773,-1.2757,-1.2748,-1.2732,-1.2719,-1.2713,-1.2715,-1.2716,-1.2717,-1.2716,-1.2709,-1.2709,-1.2705,-1.2705,-1.2705,0,0,-1.2951,-1.293,-1.2922,-1.2892,-1.2877,-1.2862,-1.285,-1.2835,-1.2824,-1.2805,-1.2789,-1.2776,-1.2755,-1.274,-1.2733,-1.273,-1.2716,-1.2717,-1.2718,-1.2717,-1.2709,-1.2709,-1.2709,-1.2705,-1.2705,-1.2705,0,0,-1.2953,-1.2936,-1.2924,-1.2908,-1.2884,-1.2869,-1.2866,-1.284,-1.283,-1.2813,-1.2798,-1.2786,-1.276,-1.2745,-1.2735,-1.2733,-1.2723,-1.2729,-1.2734,-1.2726,-1.2727,-1.2727,-1.2726,-1.2726,-1.2728,-1.2728,-1.2728,0,-1.2964,-1.2939,-1.2919,-1.2904,-1.2892,-1.2873,-1.2861,-1.2848,-1.2821,-1.2813,-1.281,-1.2776,-1.2762,-1.2743,-1.2743,-1.2735,-1.2731,-1.2731,-1.2728,-1.2728,-1.2728,-1.2727,-1.2727,-1.2729,-1.2729,-1.2729,-1.2729,0,-1.2954,-1.2937,-1.293,-1.2903,-1.289,-1.2877,-1.2855,-1.2845,-1.2834,-1.282,-1.2803,-1.2784,-1.2764,-1.2759,-1.2749,-1.274,-1.2738,-1.2732,-1.2726,-1.2729,-1.2728,-1.2727,-1.273,-1.273,-1.2729,-1.2729,0,0,-1.2969,-1.293,-1.2928,-1.2915,-1.2887,-1.2875,-1.2862,-1.2841,-1.2832,-1.2815,-1.2803,-1.2782,-1.2775,-1.2764,-1.2751,-1.2745,-1.2744,-1.2739,-1.2739,-1.2741,-1.2733,-1.2738,-1.2738,-1.2738,-1.2738,-1.2738,-1.2735,0,-1.2967,-1.294,-1.2921,-1.2902,-1.2887,-1.2869,-1.2857,-1.284,-1.2826,-1.2812,-1.2798,-1.2783,-1.2776,-1.2768,-1.2761,-1.2746,-1.2743,-1.2746,-1.2728,-1.2727,-1.2732,-1.2737,-1.2742,-1.274,-1.2734,-1.2734,-1.2734,0,-1.2961,-1.2943,-1.2921,-1.2895,-1.2888,-1.2878,-1.2857,-1.2844,-1.2824,-1.2815,-1.2802,-1.2789,-1.2775,-1.2771,-1.2752,-1.2755,-1.2746,-1.2738,-1.2737,-1.2735,-1.273,-1.2734,-1.2739,-1.2738,-1.2733,-1.2733,-1.2733,0,-1.2974,-1.2944,-1.2927,-1.2917,-1.2886,-1.2879,-1.2866,-1.2846,-1.2835,-1.2818,-1.2811,-1.2793,-1.2783,-1.277,-1.2754,-1.2752,-1.2736,-1.2731,-1.2729,-1.2729,-1.2725,-1.2726,-1.2729,-1.2721,-1.2721,-1.2721,-1.2721,0,-1.2974,-1.2961,-1.2932,-1.2921,-1.2907,-1.2887,-1.2874,-1.286,-1.2843,-1.283,-1.2815,-1.2804,-1.2782,-1.2769,-1.2757,-1.2743,-1.2739,-1.2731,-1.2728,-1.2732,-1.2733,-1.2726,-1.2725,-1.2721,-1.2721,-1.2721,-1.2721,0,-1.2985,-1.2965,-1.2945,-1.2917,-1.291,-1.2901,-1.2878,-1.2868,-1.2853,-1.2838,-1.2833,-1.2811,-1.2795,-1.2777,-1.2755,-1.2746,-1.2733,-1.2729,-1.2739,-1.2737,-1.2735,-1.2736,-1.2734,-1.2732,-1.2726,-1.2726,-1.2726,0,-1.2986,-1.2976,-1.2947,-1.2936,-1.2923,-1.2907,-1.2896,-1.2876,-1.2864,-1.2841,-1.2834,-1.2816,-1.2801,-1.2776,-1.2758,-1.2742,-1.2736,-1.2737,-1.2734,-1.2738,-1.2736,-1.2736,-1.2735,-1.2738,-1.2738,-1.2738,-1.2738,0,-1.299,-1.298,-1.2963,-1.2942,-1.2928,-1.2911,-1.2894,-1.2887,-1.2864,-1.2852,-1.2834,-1.2822,-1.2799,-1.2782,-1.2763,-1.2751,-1.2741,-1.2739,-1.2738,-1.2742,-1.2748,-1.2744,-1.2741,-1.2739,-1.2739,-1.2739,-1.2739,-1.2739,-1.2995,-1.2985,-1.2963,-1.2944,-1.2929,-1.2913,-1.2902,-1.2886,-1.287,-1.2849,-1.2839,-1.2821,-1.2802,-1.2776,-1.2764,-1.2751,-1.2748,-1.2746,-1.2745,-1.2745,-1.2746,-1.275,-1.2748,-1.2748,-1.2748,-1.2748,-1.2748,0,-1.2998,-1.2982,-1.2966,-1.2941,-1.2927,-1.2917,-1.2898,-1.2887,-1.2871,-1.2854,-1.2838,-1.2818,-1.2802,-1.2783,-1.2765,-1.2758,-1.2753,-1.2754,-1.2754,-1.2752,-1.275,-1.2753,-1.2759,-1.2759,-1.2759,-1.2759,-1.2759,-1.2759,-1.2997,-1.298,-1.2967,-1.2943,-1.2928,-1.2909,-1.2899,-1.2884,-1.287,-1.2848,-1.2834,-1.2821,-1.2804,-1.2785,-1.2769,-1.2764,-1.2758,-1.2761,-1.2755,-1.2753,-1.2752,-1.2751,-1.2754,-1.276,-1.276,-1.2758,-1.2758,-1.2758]},{"header":{"parameterUnit":"m.s-1","parameterCategory":1,"la1":30.2991,"la2":30.254,"lo1":-89.0895,"lo2":-89.0444,"dy":0.0017,"dx":0.0017,"nx":28,"ny":28,"refTime":"2024-02-07T03:00:00:Z","depth":0,"parameterNumber":3,"parameterNumberName":"V-component_of_WINDS"},"data":[0,0,0,0,0,0,0,0,0,0,0,0,0,0,0,0,0,0,0,0,0,0,0,0,0,0,0,0,0,0,0,0,0,0,0,0,0,0,0,0,0,0,0,0,0,0,0,0,0,0,0,0,0,0,0,0,0,0,2.5392,2.5392,0,2.5393,2.5393,2.5393,2.5442,2.5443,2.5444,2.5445,2.5446,2.5444,2.5443,0,0,0,0,0,0,0,0,0,0,0,0,0,2.5431,2.543,2.5392,2.5392,2.5392,2.5393,2.5393,2.5393,2.5441,2.5443,2.5444,2.5446,2.5446,2.5445,2.5443,0,0,0,0,0,0,0,0,0,0,0,0,0,2.5421,2.5429,2.5392,2.5416,2.5418,2.5393,2.5393,2.5393,2.5441,2.5443,2.5445,2.5447,2.5446,2.5445,2.5443,2.5394,0,0,2.5438,2.5437,0,0,0,0,0,0,0,0,2.5422,2.542,2.5412,2.5414,2.5417,2.5419,2.5407,2.5394,2.544,2.5432,2.5445,2.5447,2.5435,2.5434,2.5431,2.5394,2.5394,2.5437,2.5436,2.5436,2.5435,0,0,0,0,0,0,0,2.5422,2.542,2.5392,2.5412,2.5415,2.5427,2.5427,2.5405,2.5423,2.5433,2.5437,2.5436,2.5437,2.5432,2.5431,2.5394,2.5438,2.5436,2.5435,2.5434,2.5321,2.5319,0,0,0,0,0,0,2.542,2.542,2.5392,2.5392,2.5424,2.5425,2.5425,2.5416,2.5423,2.5426,2.5435,2.5438,2.5434,2.5433,2.5431,2.5377,2.5436,2.5434,2.5433,2.5323,2.532,2.5318,0,0,0,0,0,0,2.542,2.5417,2.5392,2.5407,2.5405,2.5422,2.5411,2.5415,2.5411,2.5425,2.5428,2.5427,2.5436,2.5434,2.5404,2.5377,2.5433,2.5432,2.5325,2.5322,2.5319,2.5266,0,0,0,0,0,0,2.5421,2.5417,2.5398,2.5406,2.5404,2.5365,2.541,2.5414,2.5408,2.5413,2.5418,2.5421,2.5437,2.5406,2.5402,2.5376,2.543,2.5328,2.5324,2.532,2.5271,2.5262,2.5255,0,0,0,0,0,2.5422,2.5383,2.5397,2.5394,2.5382,2.5363,2.5362,2.5382,2.5406,2.5388,2.5397,2.542,2.538,2.5403,2.5398,2.5371,2.5329,2.5325,2.532,2.5274,2.5264,2.5255,0,0,0,0,0,0,2.537,2.5384,2.54,2.5362,2.5361,2.5371,2.5349,2.5369,2.5361,2.5366,2.5391,2.5392,2.5359,2.5362,2.5386,2.5326,2.5359,2.5354,2.5325,2.5315,2.5308,2.5309,2.5429,0,0,0,0,0,2.5354,2.5339,2.5351,2.5316,2.5315,2.5332,2.5325,2.534,2.534,2.534,2.5347,2.5345,2.5333,2.5324,2.5313,2.527,2.5273,2.525,2.5242,2.5235,2.5231,2.5211,2.5201,2.5304,2.5304,2.5304,0,0,2.5321,2.5327,2.5315,2.5306,2.5307,2.5291,2.5331,2.5312,2.53,2.5337,2.531,2.5314,2.5315,2.5279,2.5264,2.5281,2.5203,2.523,2.5224,2.5224,2.5205,2.5196,2.5187,2.5301,2.5301,2.5302,0,0,2.5254,2.5255,2.5228,2.5228,2.523,2.5241,2.5234,2.5242,2.5247,2.522,2.5248,2.5234,2.5211,2.5211,2.5208,2.514,2.5163,2.5135,2.5095,2.5075,2.5067,2.506,2.5038,2.5029,2.5131,2.513,2.513,0,2.5212,2.5189,2.521,2.519,2.5185,2.5218,2.5191,2.519,2.5187,2.5184,2.5203,2.5176,2.5178,2.5144,2.5128,2.5123,2.5117,2.5136,2.5066,2.5059,2.5053,2.5032,2.5024,2.5127,2.5128,2.5128,2.5128,0,2.5139,2.5122,2.51,2.5098,2.5091,2.5066,2.5085,2.5075,2.509,2.51,2.5073,2.5077,2.5068,2.5061,2.5076,2.5029,2.504,2.5062,2.5096,2.504,2.5021,2.5013,2.5123,2.5124,2.5125,2.5126,0,0,2.504,2.505,2.5042,2.5042,2.5047,2.5034,2.5011,2.5004,2.4996,2.4992,2.4975,2.4955,2.4976,2.4972,2.4987,2.4969,2.4918,2.4994,2.4994,2.4982,2.487,2.4855,2.4845,2.4932,2.4931,2.493,2.487,0,2.4976,2.4939,2.4958,2.4919,2.4905,2.4936,2.4916,2.4917,2.4925,2.4914,2.4923,2.491,2.4937,2.4935,2.4919,2.4928,2.4897,2.4932,2.4918,2.4917,2.4919,2.4835,2.4819,2.4763,2.4863,2.4862,2.4861,0,2.4897,2.4892,2.4852,2.486,2.4855,2.4837,2.4832,2.4821,2.4822,2.483,2.4826,2.4845,2.4824,2.4857,2.4829,2.4853,2.4847,2.4851,2.4849,2.4851,2.4887,2.4836,2.4745,2.4738,2.4849,2.485,2.4851,0,2.4831,2.4814,2.4789,2.4787,2.4796,2.4783,2.4786,2.4789,2.4784,2.4779,2.4776,2.4768,2.4765,2.4758,2.4776,2.4797,2.4746,2.4779,2.4752,2.4752,2.4742,2.4743,2.4651,2.4734,2.4735,2.4735,2.4735,0,2.476,2.4734,2.476,2.4744,2.4717,2.4738,2.4711,2.4717,2.472,2.4706,2.4731,2.4718,2.474,2.4729,2.4742,2.4718,2.4715,2.4721,2.4726,2.4721,2.472,2.4719,2.4724,2.4733,2.4733,2.4733,2.4734,0,2.4683,2.4698,2.4673,2.4683,2.4685,2.4665,2.4674,2.466,2.467,2.4653,2.465,2.4665,2.4654,2.467,2.4659,2.4668,2.4636,2.4644,2.4636,2.4639,2.4612,2.4616,2.4519,2.4508,2.4596,2.4595,2.4594,0,2.4637,2.4619,2.4628,2.4621,2.4623,2.4611,2.4606,2.4626,2.462,2.4621,2.4607,2.4597,2.4591,2.4571,2.4581,2.4574,2.4584,2.4551,2.4583,2.4579,2.4586,2.4588,2.4588,2.4545,2.4544,2.4543,2.4542,0,2.4556,2.4565,2.4557,2.4552,2.4545,2.4542,2.454,2.4533,2.4555,2.4546,2.4535,2.453,2.452,2.4511,2.4506,2.4509,2.453,2.4531,2.4525,2.4521,2.4518,2.4522,2.462,2.4534,2.4535,2.4536,2.4536,2.4536,2.4495,2.4481,2.4485,2.4476,2.4477,2.4476,2.4464,2.4473,2.4464,2.4458,2.447,2.4456,2.4459,2.4455,2.4456,2.4445,2.446,2.445,2.4448,2.4446,2.4443,2.4518,2.4444,2.4444,2.4444,2.4445,2.4445,0,2.4417,2.4422,2.4413,2.4411,2.4403,2.4423,2.4423,2.4416,2.4403,2.4404,2.4398,2.4386,2.4377,2.4386,2.438,2.437,2.4379,2.4367,2.437,2.437,2.4429,2.4437,2.436,2.436,2.436,2.436,2.436,2.436,2.4376,2.4354,2.4363,2.4342,2.4347,2.4334,2.4332,2.4331,2.4332,2.4318,2.4311,2.4318,2.4322,2.4316,2.4309,2.4312,2.431,2.4295,2.4302,2.4357,2.4366,2.4374,2.4381,2.4294,2.4294,2.4244,2.4244,2.4243]}]]